| time (UTC) | temp F | wind direction | speed knots | gust knots | rain 1hr in | rain 24hr in | rain mn in | humidity % | barometer mb |
| 20260504011018 | 65 | 330 | 0.9 | 2.6 | 0.00 | 0.00 | 0.00 | 35 | 1002.5 |
| 20260504010516 | 66 | 330 | 0.9 | 1.7 | 0.00 | 0.00 | 0.00 | 34 | 1002.4 |
| 20260504010034 | 66 | 305 | 0.9 | 2.6 | 0.00 | 0.00 | 0.00 | 34 | 1002.5 |
| 20260504005531 | 67 | 296 | 0.9 | 2.6 | 0.00 | 0.00 | 0.00 | 33 | 1002.3 |
| 20260504005029 | 67 | 296 | 0.9 | 0.9 | 0.00 | 0.00 | 0.00 | 33 | 1002.4 |
| 20260504004528 | 67 | 296 | 0.0 | 1.7 | 0.00 | 0.00 | 0.00 | 33 | 1002.3 |
| 20260504004026 | 68 | 313 | 0.9 | 3.5 | 0.00 | 0.00 | 0.00 | 33 | 1002.3 |
| 20260504003524 | 68 | 318 | 0.9 | 2.6 | 0.00 | 0.00 | 0.00 | 33 | 1002.2 |
| 20260504003042 | 68 | 321 | 1.7 | 5.2 | 0.00 | 0.00 | 0.00 | 33 | 1002.2 |
| 20260504002520 | 69 | 299 | 1.7 | 6.1 | 0.00 | 0.00 | 0.00 | 33 | 1002.2 |
| 20260504002039 | 69 | 292 | 0.9 | 3.5 | 0.00 | 0.00 | 0.00 | 33 | 1002.2 |
| 20260504001537 | 69 | 292 | 1.7 | 5.2 | 0.00 | 0.00 | 0.00 | 32 | 1002.1 |
| 20260504001055 | 69 | 278 | 1.7 | 6.1 | 0.00 | 0.00 | 0.00 | 34 | 1002.2 |
| 20260504000533 | 70 | 303 | 1.7 | 6.1 | 0.00 | 0.00 | 0.00 | 34 | 1002.3 |
| 20260504000030 | 70 | 288 | 0.9 | 5.2 | 0.00 | 0.00 | 0.00 | 34 | 1002.2 |
| 20260503235529 | 70 | 311 | 2.6 | 9.6 | 0.00 | 0.00 | 0.00 | 33 | 1002.1 |
| 20260503235027 | 71 | 303 | 2.6 | 7.0 | 0.00 | 0.00 | 0.00 | 33 | 1002.2 |
| 20260503234525 | 71 | 307 | 1.7 | 6.1 | 0.00 | 0.00 | 0.00 | 32 | 1002.2 |
| 20260503234043 | 71 | 292 | 1.7 | 5.2 | 0.00 | 0.00 | 0.00 | 32 | 1002.3 |
| 20260503233541 | 71 | 291 | 1.7 | 6.1 | 0.00 | 0.00 | 0.00 | 32 | 1002.3 |
| 20260503233019 | 71 | 311 | 3.5 | 9.6 | 0.00 | 0.00 | 0.00 | 32 | 1002.2 |
| 20260503232518 | 72 | 314 | 2.6 | 8.7 | 0.00 | 0.00 | 0.00 | 32 | 1002.2 |
| 20260503232016 | 72 | 312 | 2.6 | 11.3 | 0.00 | 0.00 | 0.00 | 32 | 1002.1 |
| 20260503231554 | 72 | 301 | 2.6 | 7.0 | 0.00 | 0.00 | 0.00 | 31 | 1002.0 |
| 20260503231031 | 72 | 324 | 2.6 | 8.7 | 0.00 | 0.00 | 0.00 | 31 | 1002.1 |
| 20260503230550 | 72 | 305 | 3.5 | 7.8 | 0.00 | 0.00 | 0.00 | 31 | 1002.2 |
| 20260503230027 | 72 | 299 | 3.5 | 8.7 | 0.00 | 0.00 | 0.00 | 30 | 1002.2 |
| 20260503225526 | 72 | 329 | 4.3 | 13.0 | 0.00 | 0.00 | 0.00 | 30 | 1002.0 |
| 20260503225024 | 72 | 313 | 3.5 | 8.7 | 0.00 | 0.00 | 0.00 | 30 | 1002.1 |
| 20260503224522 | 72 | 317 | 2.6 | 7.8 | 0.00 | 0.00 | 0.00 | 30 | 1002.0 |
| 20260503224021 | 72 | 324 | 3.5 | 8.7 | 0.00 | 0.00 | 0.00 | 30 | 1002.0 |
| 20260503223519 | 73 | 299 | 2.6 | 7.8 | 0.00 | 0.00 | 0.00 | 31 | 1001.9 |
| 20260503223037 | 73 | 310 | 2.6 | 8.7 | 0.00 | 0.00 | 0.00 | 31 | 1002.0 |
| 20260503222515 | 73 | 291 | 2.6 | 8.7 | 0.00 | 0.00 | 0.00 | 29 | 1002.0 |
| 20260503222033 | 73 | 295 | 4.3 | 13.0 | 0.00 | 0.00 | 0.00 | 30 | 1001.9 |
| 20260503221531 | 73 | 327 | 1.7 | 7.0 | 0.00 | 0.00 | 0.00 | 31 | 1001.9 |
| 20260503221029 | 73 | 334 | 1.7 | 11.3 | 0.00 | 0.00 | 0.00 | 30 | 1002.0 |
| 20260503220527 | 74 | 300 | 2.6 | 8.7 | 0.00 | 0.00 | 0.00 | 31 | 1002.0 |
| 20260503220025 | 74 | 298 | 1.7 | 6.1 | 0.00 | 0.00 | 0.00 | 31 | 1002.0 |
| 20260503215524 | 74 | 316 | 2.6 | 7.0 | 0.00 | 0.00 | 0.00 | 32 | 1002.1 |
| 20260503215102 | 74 | 300 | 3.5 | 8.7 | 0.00 | 0.00 | 0.00 | 32 | 1002.0 |
| 20260503214520 | 74 | 293 | 2.6 | 7.0 | 0.00 | 0.00 | 0.00 | 32 | 1002.0 |
| 20260503214018 | 74 | 307 | 3.5 | 7.8 | 0.00 | 0.00 | 0.00 | 31 | 1002.0 |
| 20260503213517 | 74 | 316 | 3.5 | 9.6 | 0.00 | 0.00 | 0.00 | 31 | 1002.0 |
| 20260503213035 | 74 | 301 | 3.5 | 8.7 | 0.00 | 0.00 | 0.00 | 31 | 1002.0 |
| 20260503212552 | 74 | 300 | 1.7 | 8.7 | 0.00 | 0.00 | 0.00 | 31 | 1002.1 |
| 20260503212030 | 74 | 315 | 2.6 | 11.3 | 0.00 | 0.00 | 0.00 | 31 | 1002.2 |
| 20260503211528 | 74 | 314 | 2.6 | 6.1 | 0.00 | 0.00 | 0.00 | 31 | 1002.2 |
| 20260503211046 | 74 | 329 | 1.7 | 7.0 | 0.00 | 0.00 | 0.00 | 32 | 1002.0 |
| 20260503210545 | 74 | 287 | 3.5 | 9.6 | 0.00 | 0.00 | 0.00 | 30 | 1002.2 |
| 20260503210023 | 74 | 306 | 2.6 | 7.8 | 0.00 | 0.00 | 0.00 | 30 | 1002.2 |
| 20260503205521 | 74 | 324 | 2.6 | 9.6 | 0.00 | 0.00 | 0.00 | 31 | 1002.2 |
| 20260503205020 | 74 | 331 | 2.6 | 6.1 | 0.00 | 0.00 | 0.00 | 32 | 1002.2 |
| 20260503204538 | 74 | 304 | 2.6 | 7.8 | 0.00 | 0.00 | 0.00 | 32 | 1002.3 |
| 20260503204016 | 74 | 297 | 3.5 | 13.0 | 0.00 | 0.00 | 0.00 | 31 | 1002.3 |
| 20260503203534 | 74 | 310 | 5.2 | 14.8 | 0.00 | 0.00 | 0.00 | 30 | 1002.2 |
| 20260503203051 | 74 | 305 | 3.5 | 12.2 | 0.00 | 0.00 | 0.00 | 33 | 1002.3 |
| 20260503202529 | 74 | 334 | 3.5 | 7.0 | 0.00 | 0.00 | 0.00 | 34 | 1002.4 |
| 20260503202027 | 74 | 331 | 4.3 | 7.8 | 0.00 | 0.00 | 0.00 | 35 | 1002.4 |
| 20260503201526 | 74 | 330 | 3.5 | 8.7 | 0.00 | 0.00 | 0.00 | 33 | 1002.4 |
| 20260503201024 | 74 | 297 | 6.1 | 15.6 | 0.00 | 0.00 | 0.00 | 34 | 1002.3 |
| 20260503200542 | 74 | 292 | 2.6 | 7.8 | 0.00 | 0.00 | 0.00 | 36 | 1002.3 |
| 20260503200021 | 74 | 305 | 1.7 | 6.1 | 0.00 | 0.00 | 0.00 | 36 | 1002.3 |
| 20260503195619 | 74 | 309 | 1.7 | 7.0 | 0.00 | 0.00 | 0.00 | 36 | 1002.5 |
| 20260503195037 | 74 | 313 | 2.6 | 7.0 | 0.00 | 0.00 | 0.00 | 35 | 1002.5 |
| 20260503194536 | 74 | 281 | 2.6 | 7.0 | 0.00 | 0.00 | 0.00 | 36 | 1002.4 |
| 20260503194033 | 74 | 271 | 1.7 | 8.7 | 0.00 | 0.00 | 0.00 | 36 | 1002.5 |
| 20260503193531 | 74 | 301 | 2.6 | 7.0 | 0.00 | 0.00 | 0.00 | 37 | 1002.4 |
| 20260503193109 | 73 | 273 | 1.7 | 5.2 | 0.00 | 0.00 | 0.00 | 37 | 1002.5 |
| 20260503192527 | 73 | 287 | 2.6 | 9.6 | 0.00 | 0.00 | 0.00 | 37 | 1002.6 |
| 20260503192025 | 73 | 270 | 4.3 | 11.3 | 0.00 | 0.00 | 0.00 | 38 | 1002.5 |
| 20260503191524 | 73 | 244 | 3.5 | 11.3 | 0.00 | 0.00 | 0.00 | 39 | 1002.6 |
| 20260503191022 | 73 | 233 | 1.7 | 7.0 | 0.00 | 0.00 | 0.00 | 39 | 1002.7 |
| 20260503190520 | 73 | 327 | 2.6 | 7.0 | 0.00 | 0.00 | 0.00 | 39 | 1002.7 |
| 20260503190019 | 73 | 230 | 2.6 | 7.0 | 0.00 | 0.00 | 0.00 | 41 | 1002.7 |
| 20260503185517 | 73 | 185 | 4.3 | 8.7 | 0.00 | 0.00 | 0.00 | 42 | 1002.8 |
| 20260503185015 | 72 | 170 | 1.7 | 5.2 | 0.00 | 0.00 | 0.00 | 42 | 1002.8 |
| 20260503184533 | 72 | 166 | 1.7 | 3.5 | 0.00 | 0.00 | 0.00 | 40 | 1002.9 |
| 20260503184050 | 72 | 238 | 2.6 | 6.1 | 0.00 | 0.00 | 0.00 | 41 | 1002.9 |
| 20260503183529 | 72 | 318 | 2.6 | 7.0 | 0.00 | 0.00 | 0.00 | 39 | 1003.0 |
| 20260503183107 | 71 | 310 | 2.6 | 6.1 | 0.00 | 0.00 | 0.00 | 41 | 1003.0 |
| 20260503182526 | 71 | 175 | 2.6 | 5.2 | 0.00 | 0.00 | 0.00 | 43 | 1003.1 |
| 20260503182024 | 71 | 185 | 2.6 | 7.8 | 0.00 | 0.00 | 0.00 | 42 | 1003.2 |
| 20260503181522 | 71 | 156 | 2.6 | 6.1 | 0.00 | 0.00 | 0.00 | 43 | 1003.2 |
| 20260503181020 | 70 | 211 | 1.7 | 5.2 | 0.00 | 0.00 | 0.00 | 43 | 1003.3 |
| 20260503180518 | 70 | 267 | 0.9 | 5.2 | 0.00 | 0.00 | 0.00 | 42 | 1003.3 |
| 20260503180017 | 70 | 167 | 3.5 | 8.7 | 0.00 | 0.00 | 0.00 | 44 | 1003.5 |
| 20260503175535 | 69 | 163 | 2.6 | 6.1 | 0.00 | 0.00 | 0.00 | 43 | 1003.5 |
| 20260503175032 | 69 | 177 | 2.6 | 5.2 | 0.00 | 0.00 | 0.00 | 43 | 1003.7 |
| 20260503174530 | 68 | 206 | 1.7 | 2.6 | 0.00 | 0.00 | 0.00 | 43 | 1003.5 |
| 20260503174028 | 69 | 284 | 1.7 | 5.2 | 0.00 | 0.00 | 0.00 | 41 | 1003.8 |
| 20260503173527 | 68 | 175 | 1.7 | 5.2 | 0.00 | 0.00 | 0.00 | 43 | 1003.6 |
| 20260503173025 | 68 | 165 | 2.6 | 7.0 | 0.00 | 0.00 | 0.00 | 44 | 1003.7 |
| 20260503172523 | 68 | 159 | 3.5 | 6.1 | 0.00 | 0.00 | 0.00 | 44 | 1003.6 |
| 20260503172021 | 68 | 159 | 3.5 | 7.0 | 0.00 | 0.00 | 0.00 | 44 | 1003.6 |
| 20260503171520 | 68 | 208 | 1.7 | 5.2 | 0.00 | 0.00 | 0.00 | 44 | 1003.7 |
| 20260503171018 | 67 | 158 | 1.7 | 5.2 | 0.00 | 0.00 | 0.00 | 43 | 1003.8 |
| 20260503170516 | 67 | 171 | 1.7 | 6.1 | 0.00 | 0.00 | 0.00 | 44 | 1004.0 |
| 20260503150530 | 63 | 154 | 4.3 | 8.7 | 0.00 | 0.00 | 0.00 | 47 | 1004.6 |
| 20260503131047 | 57 | 147 | 3.5 | 9.6 | 0.00 | 0.00 | 0.00 | 57 | 1005.3 |
| 20260503130545 | 56 | 144 | 3.5 | 7.8 | 0.00 | 0.00 | 0.00 | 58 | 1005.2 |
| 20260503110520 | 54 | 139 | 3.5 | 6.1 | 0.00 | 0.00 | 0.00 | 54 | 1005.6 |
| 20260503081517 | 53 | 85 | 0.0 | 0.9 | 0.00 | 0.00 | 0.00 | 47 | 1007.8 |
| 20260503081035 | 53 | 85 | 0.0 | 0.9 | 0.00 | 0.00 | 0.00 | 47 | 1007.9 |
| 20260503080553 | 53 | 89 | 0.0 | 2.6 | 0.00 | 0.00 | 0.00 | 48 | 1007.8 |
| 20260503072518 | 54 | 134 | 1.7 | 5.2 | 0.00 | 0.00 | 0.00 | 46 | 1008.2 |
| 20260503072016 | 54 | 203 | 0.9 | 5.2 | 0.00 | 0.00 | 0.00 | 46 | 1008.2 |
| 20260503071535 | 54 | 174 | 0.9 | 3.5 | 0.00 | 0.00 | 0.00 | 46 | 1008.4 |
| 20260503071032 | 54 | 119 | 0.9 | 3.5 | 0.00 | 0.00 | 0.00 | 46 | 1008.3 |
| 20260503070530 | 54 | 336 | 0.9 | 1.7 | 0.00 | 0.00 | 0.00 | 46 | 1008.5 |
| 20260503055023 | 53 | 81 | 1.7 | 2.6 | 0.00 | 0.00 | 0.00 | 48 | 1009.1 |
| 20260503054521 | 53 | 116 | 1.7 | 3.5 | 0.00 | 0.00 | 0.00 | 48 | 1009.2 |
| 20260503054019 | 53 | 114 | 1.7 | 2.6 | 0.00 | 0.00 | 0.00 | 48 | 1009.2 |
| 20260503053517 | 53 | 141 | 0.9 | 2.6 | 0.00 | 0.00 | 0.00 | 48 | 1009.2 |
| 20260503053036 | 53 | 123 | 1.7 | 6.1 | 0.00 | 0.00 | 0.00 | 49 | 1009.2 |
| 20260503052554 | 53 | 94 | 0.9 | 2.6 | 0.00 | 0.00 | 0.00 | 49 | 1009.2 |
| 20260503052031 | 53 | 87 | 0.0 | 2.6 | 0.00 | 0.00 | 0.00 | 49 | 1009.2 |
| 20260503051549 | 53 | 62 | 0.9 | 3.5 | 0.00 | 0.00 | 0.00 | 50 | 1009.3 |
| 20260503051028 | 53 | 59 | 0.0 | 1.7 | 0.00 | 0.00 | 0.00 | 49 | 1009.3 |
| 20260503050526 | 53 | 65 | 0.9 | 1.7 | 0.00 | 0.00 | 0.00 | 49 | 1009.3 |
| 20260503050024 | 53 | 83 | 1.7 | 2.6 | 0.00 | 0.00 | 0.00 | 49 | 1009.3 |
| 20260503045522 | 53 | 35 | 0.9 | 1.7 | 0.00 | 0.00 | 0.00 | 49 | 1009.3 |
| 20260503045021 | 53 | 0.0 | 0.0 | 0.00 | 0.00 | 0.00 | 49 | 1009.3 | |
| 20260503044519 | 53 | 81 | 1.7 | 2.6 | 0.00 | 0.00 | 0.00 | 50 | 1009.3 |
| 20260503044017 | 53 | 96 | 0.9 | 2.6 | 0.00 | 0.00 | 0.00 | 50 | 1009.4 |
| 20260503043515 | 53 | 76 | 0.9 | 2.6 | 0.00 | 0.00 | 0.00 | 50 | 1009.5 |
| 20260503043053 | 52 | 105 | 0.9 | 2.6 | 0.00 | 0.00 | 0.00 | 52 | 1009.6 |
| 20260503042530 | 51 | 245 | 0.0 | 1.7 | 0.00 | 0.00 | 0.00 | 55 | 1009.5 |
| 20260503042029 | 51 | 218 | 0.9 | 2.6 | 0.00 | 0.00 | 0.00 | 55 | 1009.6 |
| 20260503041527 | 51 | 218 | 0.0 | 2.6 | 0.00 | 0.00 | 0.00 | 56 | 1009.6 |
| 20260503041026 | 50 | 218 | 0.9 | 2.6 | 0.00 | 0.00 | 0.00 | 57 | 1009.7 |
| 20260503040524 | 50 | 218 | 0.0 | 1.7 | 0.00 | 0.00 | 0.00 | 58 | 1009.6 |
| 20260503040022 | 51 | 0.0 | 0.0 | 0.00 | 0.00 | 0.00 | 58 | 1009.6 | |
| 20260503035520 | 51 | 0.0 | 0.0 | 0.00 | 0.00 | 0.00 | 57 | 1009.7 | |
| 20260503035019 | 51 | 0.0 | 0.0 | 0.00 | 0.00 | 0.00 | 55 | 1009.7 | |
| 20260503034517 | 51 | 0.0 | 0.0 | 0.00 | 0.00 | 0.00 | 58 | 1009.9 | |
| 20260503034035 | 51 | 0.0 | 0.0 | 0.00 | 0.00 | 0.00 | 58 | 1010.0 | |
| 20260503033533 | 51 | 0.0 | 0.0 | 0.00 | 0.00 | 0.00 | 58 | 1010.0 | |
| 20260503033050 | 51 | 0.0 | 0.0 | 0.00 | 0.00 | 0.00 | 57 | 1009.9 | |
| 20260503032529 | 51 | 0.0 | 0.0 | 0.00 | 0.00 | 0.00 | 57 | 1010.0 | |
| 20260503032047 | 51 | 0.0 | 0.0 | 0.00 | 0.00 | 0.00 | 56 | 1010.0 | |
| 20260503031525 | 51 | 0.0 | 0.0 | 0.00 | 0.00 | 0.00 | 55 | 1010.3 | |
| 20260503031024 | 51 | 0.0 | 0.0 | 0.00 | 0.00 | 0.00 | 56 | 1010.3 | |
| 20260503030522 | 51 | 0.0 | 0.0 | 0.00 | 0.00 | 0.00 | 57 | 1010.3 | |
| 20260503030020 | 52 | 0.0 | 0.0 | 0.00 | 0.00 | 0.00 | 55 | 1010.4 | |
| 20260503025518 | 52 | 0.0 | 0.0 | 0.00 | 0.00 | 0.00 | 54 | 1010.3 | |
| 20260503025016 | 52 | 0.0 | 0.0 | 0.00 | 0.00 | 0.00 | 55 | 1010.4 | |
| 20260503024535 | 52 | 0.0 | 0.0 | 0.00 | 0.00 | 0.00 | 53 | 1010.4 | |
| 20260503024032 | 52 | 0.0 | 0.0 | 0.00 | 0.00 | 0.00 | 53 | 1010.4 | |
| 20260503023530 | 52 | 0.0 | 0.0 | 0.00 | 0.00 | 0.00 | 53 | 1010.5 | |
| 20260503023028 | 52 | 0.0 | 0.0 | 0.00 | 0.00 | 0.00 | 53 | 1010.3 | |
| 20260503022526 | 52 | 0.0 | 0.0 | 0.00 | 0.00 | 0.00 | 54 | 1010.5 | |
| 20260503022045 | 53 | 0.0 | 0.0 | 0.00 | 0.00 | 0.00 | 53 | 1010.5 | |
| 20260503021523 | 53 | 0.0 | 0.0 | 0.00 | 0.00 | 0.00 | 52 | 1010.5 | |
| 20260503021022 | 53 | 0.0 | 0.0 | 0.00 | 0.00 | 0.00 | 53 | 1010.5 | |
| 20260503020540 | 54 | 0.0 | 0.0 | 0.00 | 0.00 | 0.00 | 52 | 1010.5 | |
| 20260503020018 | 54 | 0.0 | 0.0 | 0.00 | 0.00 | 0.00 | 51 | 1010.4 | |
| 20260503015516 | 54 | 0.0 | 0.0 | 0.00 | 0.00 | 0.00 | 50 | 1010.4 | |
| 20260503015034 | 54 | 0.0 | 0.0 | 0.00 | 0.00 | 0.00 | 50 | 1010.4 | |
| 20260503014531 | 55 | 0.0 | 0.0 | 0.00 | 0.00 | 0.00 | 49 | 1010.4 | |
| 20260503014029 | 55 | 0.0 | 0.0 | 0.00 | 0.00 | 0.00 | 47 | 1010.4 | |
| 20260503013527 | 56 | 0.0 | 0.0 | 0.00 | 0.00 | 0.00 | 46 | 1010.4 | |
| 20260503013025 | 56 | 0.0 | 0.0 | 0.00 | 0.00 | 0.00 | 46 | 1010.3 | |
| 20260503012523 | 57 | 0.0 | 0.0 | 0.00 | 0.00 | 0.00 | 44 | 1010.5 | |
| 20260503012022 | 57 | 0.0 | 0.0 | 0.00 | 0.00 | 0.00 | 45 | 1010.4 | |
| 20260503011520 | 58 | 0.0 | 0.0 | 0.00 | 0.00 | 0.00 | 44 | 1010.5 |